Location: Navajo
(48.7922°N, 105.0603°W)
Time: 15:55:31
(UTC+00:00)

QB50P2 - Pass Details

Date: 05 July 2022
Orbit: 590 x 605 km, 97.9° (Epoch: 06 August)

Event Time Altitude Azimuth Distance (km) Brightness Sun altitude
Rises 08:49:45 0° 10° (N) 2,863 ? -14.7°
Reaches altitude 10° 08:51:57 10° 8° (N) 1,958 ? -14.5°
Maximum altitude 08:56:09 63° 288° (WNW) 680 ? -14.2°
Enters shadow 08:58:39 23° 213° (SSW) 1,291 ? -14.1°
